Preston, MN

1:21 PM CDT on June 26, 2017 (GMT -0500)
Preston

Weather History for KFKA - April, 2013

Change the Weather History Date:

Monday, April 29, 2013

  Actual Average (KRST) Record (KRST)
Temperature  
Mean Temperature 64 °F -  
Max Temperature 73 °F 63 °F 89 °F (1952)
Min Temperature 54 °F 40 °F 17 °F (1956)
Degree Days  
Heating Degree Days 2    
Growing Degree Days 14 (Base 50)    
Moisture  
Dew Point 49 °F    
Average Humidity 59    
Maximum Humidity 82    
Minimum Humidity 43    
Precipitation  
Precipitation 0.14 in - - ()
Sea Level Pressure  
Sea Level Pressure 29.74 in    
Wind  
Wind Speed 8 mph (South)    
Max Wind Speed 14 mph    
Max Gust Speed 17 mph    
Visibility 9 miles    
Events Rain , Thunderstorm    
Averages and records for this station are not official NWS values.
T = Trace of Precipitation, MM = Missing Value Source: NWS Daily Summary

Daily Weather History Graph

Daily Weather History Graph

Search for Another Location

Airport or City:

Trip Planner

Search our weather history database for the weather conditions in past years. The results will help you decide how hot, cold, wet, or windy it might be!

Date:

Astronomy

Apr. 29, 2013 Rise Set
Actual Time 6:03 AM CDT 8:09 PM CDT
Civil Twilight 5:32 AM CDT 8:40 PM CDT
Nautical Twilight 4:53 AM CDT 9:19 PM CDT
Astronomical Twilight 4:11 AM CDT 10:01 PM CDT
Moon No Moon Rise 9:21 AM CDT (4/29)
Length of Visible Light 15h 08m
Length of Day
14h 05m
Waning Gibbous, 80% of the Moon is Illuminated
Apr 29
Waning Gibbous
May 2
Last Quarter
May 9
New
May 17
First Quarter
May 24
Full

Hourly Weather History & Observations

Time (CDT) Temp. Dew Point Humidity Pressure Visibility Wind Dir Wind Speed Gust Speed Precip Events Conditions
12:14 AM 63.5 °F 42.4 °F 46% 29.77 in 10.0 mi SSW 12.7 mph - N/A   Scattered Clouds
12:34 AM 63.5 °F 42.4 °F 46% 29.77 in 10.0 mi SSW 11.5 mph - N/A   Clear
12:54 AM 62.6 °F 43.0 °F 49% 29.78 in 10.0 mi SSW 12.7 mph - N/A   Clear
1:14 AM 62.1 °F 43.3 °F 50% 29.78 in 10.0 mi SSW 11.5 mph - N/A   Clear
1:34 AM 62.6 °F 43.2 °F 49% 29.79 in 10.0 mi SW 10.4 mph - N/A   Clear
1:54 AM 61.9 °F 43.5 °F 51% 29.80 in 10.0 mi West 8.1 mph - N/A   Clear
2:14 AM 61.2 °F 43.9 °F 53% 29.80 in 10.0 mi WSW 5.8 mph - N/A   Clear
2:34 AM 60.8 °F 44.2 °F 54% 29.80 in 10.0 mi SW 5.8 mph - N/A   Scattered Clouds
2:54 AM 59.9 °F 45.0 °F 58% 29.81 in 10.0 mi SW 6.9 mph - N/A   Overcast
3:14 AM 60.1 °F 45.1 °F 58% 29.81 in 10.0 mi West 5.8 mph - N/A   Overcast
3:34 AM 59.0 °F 46.9 °F 64% 29.82 in 10.0 mi West 9.2 mph - N/A   Overcast
3:54 AM 58.3 °F 48.2 °F 69% 29.82 in 5.0 mi Calm Calm - 0.01 in Rain Rain
4:15 AM 58.1 °F 49.1 °F 72% 29.82 in 7.0 mi SSW 4.6 mph - 0.03 in Rain , Thunderstorm Rain
4:35 AM 57.2 °F 49.8 °F 76% 29.81 in 4.0 mi SSE 4.6 mph - 0.10 in Rain Heavy Rain
4:55 AM 56.8 °F 50.2 °F 78% 29.79 in 7.0 mi SE 5.8 mph - 0.13 in Rain , Thunderstorm Light Thunderstorms and Rain
5:14 AM 56.8 °F 50.2 °F 78% 29.79 in 10.0 mi SE 5.8 mph - N/A   Scattered Clouds
5:34 AM 56.5 °F 49.8 °F 78% 29.79 in 10.0 mi SSE 3.5 mph - N/A   Clear
5:54 AM 55.9 °F 49.5 °F 79% 29.80 in 7.0 mi South 4.6 mph - N/A   Clear
6:14 AM 55.8 °F 49.6 °F 80% 29.80 in 7.0 mi Calm Calm - N/A   Scattered Clouds
6:34 AM 54.9 °F 48.7 °F 80% 29.79 in 1.2 mi Calm Calm - N/A   Haze
6:55 AM 54.9 °F 49.1 °F 81% 29.78 in 2.5 mi NE 4.6 mph - N/A   Haze
7:14 AM 55.0 °F 49.3 °F 81% 29.78 in 3.0 mi NE 4.6 mph - N/A   Haze
7:34 AM 55.4 °F 49.5 °F 80% 29.80 in 4.0 mi Calm Calm - N/A   Haze
7:55 AM 56.3 °F 50.9 °F 82% 29.81 in 5.0 mi South 6.9 mph - N/A Thunderstorm Unknown
8:14 AM 57.0 °F 51.3 °F 81% 29.81 in 7.0 mi Calm Calm - N/A   Clear
8:34 AM 57.9 °F 51.6 °F 80% 29.80 in 7.0 mi Calm Calm - N/A   Clear
8:54 AM 59.5 °F 50.9 °F 73% 29.80 in 10.0 mi SSE 3.5 mph - N/A   Clear
9:14 AM 60.8 °F 51.4 °F 71% 29.80 in 10.0 mi SSW 4.6 mph - N/A   Clear
9:34 AM 63.0 °F 50.9 °F 65% 29.80 in 10.0 mi SW 5.8 mph - N/A   Clear
9:54 AM 64.4 °F 50.4 °F 60% 29.80 in 10.0 mi WSW 9.2 mph - N/A   Scattered Clouds
10:15 AM 64.9 °F 50.4 °F 59% 29.79 in 10.0 mi SW 9.2 mph - N/A   Clear
10:34 AM 65.7 °F 50.9 °F 59% 29.79 in 10.0 mi SSW 9.2 mph - N/A   Clear
10:55 AM 66.0 °F 50.2 °F 57% 29.79 in 10.0 mi South 5.8 mph - N/A   Scattered Clouds
11:14 AM 66.7 °F 49.5 °F 54% 29.79 in 10.0 mi South 3.5 mph - N/A   Mostly Cloudy
11:34 AM 66.7 °F 49.3 °F 53% 29.77 in 10.0 mi SSW 5.8 mph - N/A   Mostly Cloudy
11:55 AM 68.2 °F 48.9 °F 50% 29.77 in 10.0 mi South 9.2 mph - N/A   Mostly Cloudy
12:14 PM 68.0 °F 48.6 °F 50% 29.77 in 10.0 mi South 3.5 mph - N/A   Overcast
12:34 PM 67.8 °F 49.6 °F 52% 29.75 in 10.0 mi SSE 8.1 mph - N/A   Overcast
12:55 PM 68.7 °F 50.0 °F 51% 29.75 in 10.0 mi SE 6.9 mph - N/A   Overcast
1:14 PM 69.3 °F 50.0 °F 50% 29.74 in 10.0 mi SE 9.2 mph - N/A   Overcast
1:34 PM 69.8 °F 50.4 °F 50% 29.73 in 10.0 mi SSE 9.2 mph - N/A   Mostly Cloudy
1:54 PM 69.8 °F 50.4 °F 50% 29.73 in 10.0 mi SSE 5.8 mph - N/A Thunderstorm Scattered Clouds
2:14 PM 71.6 °F 50.2 °F 47% 29.72 in 10.0 mi SSW 5.8 mph - N/A   Mostly Cloudy
2:34 PM 71.8 °F 50.0 °F 46% 29.71 in 10.0 mi South 4.6 mph - N/A   Mostly Cloudy
2:55 PM 73.2 °F 49.6 °F 43% 29.70 in 10.0 mi SSE 11.5 mph - N/A   Mostly Cloudy
3:14 PM 71.1 °F 50.2 °F 48% 29.70 in 10.0 mi SSE 10.4 mph - N/A   Overcast
3:34 PM 71.1 °F 49.1 °F 46% 29.70 in 10.0 mi SSE 12.7 mph - N/A   Overcast
3:55 PM 71.1 °F 49.8 °F 47% 29.69 in 10.0 mi South 10.4 mph - N/A   Overcast
4:14 PM 71.1 °F 49.6 °F 47% 29.69 in 10.0 mi SSE 12.7 mph 17.3 mph N/A   Overcast
4:34 PM 70.7 °F 49.3 °F 47% 29.69 in 10.0 mi SSE 13.8 mph - N/A   Overcast
4:55 PM 70.3 °F 50.0 °F 48% 29.69 in 10.0 mi SSE 11.5 mph 17.3 mph N/A   Overcast
5:15 PM 70.3 °F 50.0 °F 48% 29.68 in 10.0 mi SE 11.5 mph 17.3 mph N/A   Overcast
5:34 PM 70.9 °F 50.7 °F 49% 29.68 in 10.0 mi SSE 10.4 mph - N/A   Mostly Cloudy
5:55 PM 71.6 °F 50.0 °F 46% 29.68 in 10.0 mi SSE 8.1 mph 16.1 mph N/A   Mostly Cloudy
6:15 PM 71.6 °F 50.4 °F 47% 29.67 in 10.0 mi South 11.5 mph - N/A   Scattered Clouds
6:34 PM 72.5 °F 50.2 °F 45% 29.67 in 10.0 mi South 10.4 mph - N/A   Mostly Cloudy
6:54 PM 71.6 °F 49.1 °F 45% 29.67 in 10.0 mi South 12.7 mph - N/A   Scattered Clouds
7:14 PM 70.7 °F 49.5 °F 47% 29.66 in 10.0 mi South 9.2 mph - N/A   Clear
7:35 PM 69.6 °F 49.8 °F 49% 29.66 in 10.0 mi South 6.9 mph - N/A   Clear
7:54 PM 68.0 °F 50.2 °F 53% 29.66 in 10.0 mi South 5.8 mph - N/A   Clear
8:14 PM 66.6 °F 50.2 °F 56% 29.66 in 10.0 mi South 4.6 mph - N/A   Clear
8:34 PM 66.2 °F 50.2 °F 56% 29.65 in 10.0 mi SSE 4.6 mph - N/A   Clear
8:54 PM 65.3 °F 50.4 °F 58% 29.65 in 10.0 mi SSE 3.5 mph - N/A   Clear
9:14 PM 65.7 °F 50.5 °F 58% 29.65 in 10.0 mi SE 4.6 mph - N/A   Clear
9:34 PM 65.3 °F 50.4 °F 58% 29.65 in 10.0 mi SE 3.5 mph - N/A   Clear
9:54 PM 65.5 °F 50.2 °F 58% 29.65 in 10.0 mi ESE 5.8 mph - N/A   Clear
10:14 PM 63.5 °F 50.2 °F 62% 29.64 in 10.0 mi SE 5.8 mph - N/A   Clear
10:34 PM 63.5 °F 50.4 °F 62% 29.64 in 10.0 mi SE 8.1 mph - N/A   Clear
11:14 PM 63.1 °F 50.0 °F 62% 29.63 in 10.0 mi SE 6.9 mph - N/A   Clear
11:34 PM 63.7 °F 50.0 °F 61% 29.62 in 10.0 mi SE 6.9 mph - N/A   Clear
11:54 PM 64.0 °F 49.6 °F 59% 29.62 in 10.0 mi ESE 5.8 mph - N/A   Clear